Regional Weather Roundup
Issued by NWS

Home | Current Version | Previous Version | Graphics & Text | Print | Product List | Glossary On
Versions: 1 2 3 4 5 6 7 8 9 10 11 12 13 14 15 16 17 18 19 20 21 22 23 24 25 26 27 28 29 30 31 32 33 34 35 36 37 38 39 40 41 42 43 44 45 46 47 48 49 50
000
ASUS43 KLMK 030210
RWRKY
KENTUCKY REGIONAL WEATHER ROUNDUP
NATIONAL WEATHER SERVICE LOUISVILLE KY
1000 PM EDT SUN AUG 02 2015

NOTE "FAIR" INDICATES FEW OR NO CLOUDS BELOW 12,000 FEET
WITH NO SIGNIFICANT WEATHER AND/OR OBSTRUCTIONS TO VISIBILITY.

KYZ001>023-026-027-061>063-070>075-030300-
WESTERN AND SOUTH CENTRAL KENTUCKY

CITY           SKY/WX    TMP DP  RH WIND       PRES   REMARKS
PADUCAH        CLEAR     80  72  76 S3        29.87S
HENDERSON      CLEAR     75  70  83 S6        29.86S
OWENSBORO      CLEAR     75  67  76 S6        29.89S
HOPKINSVILLE   CLEAR     78  66  66 S3        29.90F
BOWLING GREEN  CLEAR     77  62  59 CALM      29.91F
GLASGOW        CLEAR    N/A N/A N/A CALM      29.92S
$$

KYZ024-025-028>034-038-045-046-053-030300-
NORTH CENTRAL KENTUCKY

CITY           SKY/WX    TMP DP  RH WIND       PRES   REMARKS
LOUISVILLE/SDF CLEAR     81  62  52 S9        29.89R
LOUISVILLE/LOU CLEAR     80  63  55 S3        29.90R
FORT KNOX      CLEAR     71  64  79 CALM      29.89
$$

KYZ035>037-039>044-047>052-055>060-089>105-030300-
NORTHEAST KENTUCKY

CITY           SKY/WX    TMP DP  RH WIND       PRES   REMARKS
LEXINGTON      CLEAR     74  61  63 S5        29.92F
COVINGTON      PTCLDY    75  61  61 S6        29.90R
FRANKFORT      CLEAR     75  61  61 S6        29.90F
$$

KYZ054-064>069-076>088-106>120-030300-
SOUTHEAST KENTUCKY

CITY           SKY/WX    TMP DP  RH WIND       PRES   REMARKS
JACKSON        CLEAR     76  60  57 SE3       29.96R
LONDON         CLEAR     75  62  64 CALM      29.95S
SOMERSET       CLEAR     70  63  78 CALM      29.94S
MIDDLESBORO    CLEAR     70  62  75 SW3       29.97R
MONTICELLO     CLEAR     68  66  93 CALM      29.96S
$$




USA.gov is the U.S. government's official web portal to all federal, state and local government web resources and services.